Tracking 30995 objects as of 5-Jul-2025
HD Live streaming from Space Station
objects crossing your sky now

COSMOS 1275 DEB

Track COSMOS 1275 DEB now!
10-day predictions


NORAD ID: 12705
Int'l Code: 1981-053AZ
Perigee: 866.8 km
Apogee: 907.2 km
Inclination: 82.9 °
Period: 102.6 minutes
Semi major axis: 7258 km
RCS: 0.2491 m2 (medium)
Launch date: June 4, 1981
Source: Commonwealth of Independent States (former USSR) (CIS)
Launch site: PLESETSK MISSILE AND SPACE COMPLEX (PKMTR)

Note: This is SATELLITE DEBRIS
Your satellite tracking list
COSMOS 1382 DEB
Track 1 satellite(s)




NASA's NSSDC Master Catalog

Two Line Element Set (TLE):
1 12705U 81053AZ  25185.94317833  .00001156  00000-0  71857-3 0  9995
2 12705  82.8883 138.0098 0027887 133.2088 289.4393 14.04031305225299
Source of the keplerian elements: AFSPC